EJU5075 EDDB-LIML

Flight info

Callsign EJU5075
Flight time 1h 25m
Altitude 36000
Route LUROS3B LUROS Y211 BEBKU DCT MAREM DCT RUDAP DCT EBEDA DCT BADVI DCT BERAS DCT OLPIX/N0440F370 DCT EKPEB DCT RENTA DCT ATPED/N0346F190 M984 LUSIL
Aircraft A320/M-SDE2E3FGHIJ1RWXYZ/LB1

Departure

Time 2026-05-05 16:51
Airport Berlin Brandenburg Airport (EDDB)

Arrival

Time 2026-05-05 18:16
Airport Milano Linate Airport (LIML)
Time Latitude Longitude Altitude Speed Heading
2026-05-05 16:22 52.36139 13.51357 155 ft 0 kts 339°
2026-05-05 16:38 52.36138 13.51357 182 ft 2 kts 339°
2026-05-05 16:39 52.36114 13.51372 154 ft 4 kts 339°
2026-05-05 16:39 52.36094 13.51385 154 ft 3 kts 339°
2026-05-05 16:39 52.36072 13.51405 154 ft 4 kts 306°
2026-05-05 16:39 52.36064 13.51441 154 ft 3 kts 253°
2026-05-05 16:40 52.36066 13.51448 154 ft 0 kts 249°
2026-05-05 16:43 52.36065 13.51448 154 ft 1 kts 249°
2026-05-05 16:43 52.36054 13.51399 154 ft 9 kts 249°
2026-05-05 16:43 52.36022 13.51265 154 ft 16 kts 249°
2026-05-05 16:43 52.35982 13.51099 154 ft 14 kts 248°
2026-05-05 16:44 52.35953 13.50976 154 ft 11 kts 249°
2026-05-05 16:44 52.35928 13.50870 154 ft 9 kts 249°
2026-05-05 16:44 52.35903 13.50762 154 ft 11 kts 249°
2026-05-05 16:44 52.35869 13.50649 154 ft 12 kts 221°
2026-05-05 16:45 52.35792 13.50655 154 ft 12 kts 160°
2026-05-05 16:45 52.35713 13.50688 154 ft 11 kts 191°
2026-05-05 16:45 52.35676 13.50622 154 ft 6 kts 245°
2026-05-05 16:45 52.35660 13.50554 154 ft 9 kts 249°
2026-05-05 16:46 52.35627 13.50416 154 ft 17 kts 249°
2026-05-05 16:46 52.35581 13.50223 154 ft 17 kts 248°
2026-05-05 16:46 52.35546 13.50075 154 ft 11 kts 249°
2026-05-05 16:46 52.35519 13.49960 154 ft 13 kts 249°
2026-05-05 16:47 52.35482 13.49809 157 ft 15 kts 249°
2026-05-05 16:47 52.35443 13.49640 154 ft 17 kts 248°
2026-05-05 16:47 52.35399 13.49455 154 ft 18 kts 247°
2026-05-05 16:47 52.35359 13.49286 154 ft 13 kts 248°
2026-05-05 16:48 52.35330 13.49166 154 ft 12 kts 249°
2026-05-05 16:48 52.35290 13.48996 154 ft 20 kts 249°
2026-05-05 16:48 52.35239 13.48781 154 ft 18 kts 249°
2026-05-05 16:48 52.35201 13.48620 154 ft 12 kts 248°
2026-05-05 16:49 52.35159 13.48539 154 ft 7 kts 200°
2026-05-05 16:49 52.35120 13.48548 154 ft 7 kts 147°
2026-05-05 16:49 52.35097 13.48661 154 ft 14 kts 99°
2026-05-05 16:49 52.35084 13.48812 154 ft 13 kts 98°
2026-05-05 16:50 52.35066 13.48966 154 ft 13 kts 112°
2026-05-05 16:50 52.35078 13.49096 154 ft 12 kts 71°
2026-05-05 16:50 52.35155 13.49424 154 ft 63 kts 69°
2026-05-05 16:50 52.35390 13.50410 155 ft 121 kts 68°
2026-05-05 16:51 52.35740 13.51913 356 ft 147 kts 69°
2026-05-05 16:51 52.35779 13.53556 951 ft 152 kts 112°
2026-05-05 16:51 52.34995 13.54833 1376 ft 172 kts 148°
2026-05-05 16:51 52.33914 13.55847 1865 ft 187 kts 147°
2026-05-05 16:52 52.32806 13.57118 2250 ft 203 kts 135°
2026-05-05 16:52 52.31740 13.58791 2607 ft 223 kts 131°
2026-05-05 16:52 52.30804 13.60915 3030 ft 241 kts 106°
2026-05-05 16:52 52.30788 13.63665 3499 ft 257 kts 71°
2026-05-05 16:53 52.31455 13.66458 4299 ft 264 kts 69°
2026-05-05 16:53 52.32084 13.69273 5073 ft 271 kts 70°
2026-05-05 16:53 52.32690 13.72215 5898 ft 276 kts 72°
2026-05-05 16:53 52.32985 13.75337 6649 ft 282 kts 94°
2026-05-05 16:54 52.32531 13.78460 7398 ft 286 kts 117°
2026-05-05 16:54 52.31328 13.81027 8174 ft 287 kts 143°
2026-05-05 16:54 52.29575 13.82499 8969 ft 285 kts 169°
2026-05-05 16:54 52.27618 13.82678 9786 ft 283 kts 187°
2026-05-05 16:55 52.25622 13.82404 10288 ft 298 kts 187°
2026-05-05 16:55 52.23476 13.82099 10560 ft 318 kts 187°
2026-05-05 16:55 52.21239 13.81790 11168 ft 326 kts 187°
2026-05-05 16:55 52.18964 13.81486 11897 ft 329 kts 187°
2026-05-05 16:56 52.16673 13.81191 12662 ft 332 kts 186°
2026-05-05 16:56 52.14358 13.80896 13414 ft 335 kts 187°
2026-05-05 16:56 52.12029 13.80595 14091 ft 338 kts 187°
2026-05-05 16:56 52.09675 13.80287 14723 ft 341 kts 187°
2026-05-05 16:57 52.07297 13.79980 15349 ft 344 kts 187°
2026-05-05 16:57 52.04897 13.79674 15974 ft 348 kts 187°
2026-05-05 16:57 52.02473 13.79361 16589 ft 351 kts 187°
2026-05-05 16:57 52.00026 13.79038 17197 ft 355 kts 187°
2026-05-05 16:58 51.97553 13.78712 17802 ft 358 kts 187°
2026-05-05 16:58 51.95060 13.78386 18357 ft 361 kts 187°
2026-05-05 16:58 51.92551 13.78063 18933 ft 363 kts 187°
2026-05-05 16:58 51.90022 13.77740 19479 ft 365 kts 187°
2026-05-05 16:59 51.87484 13.77414 20025 ft 367 kts 187°
2026-05-05 16:59 51.84935 13.77087 20564 ft 370 kts 187°
2026-05-05 16:59 51.82362 13.76759 21105 ft 372 kts 187°
2026-05-05 16:59 51.79769 13.76430 21645 ft 375 kts 187°
2026-05-05 17:00 51.77159 13.76097 22184 ft 377 kts 187°
2026-05-05 17:00 51.74539 13.75760 22726 ft 380 kts 187°
2026-05-05 17:00 51.71898 13.75418 23239 ft 382 kts 187°
2026-05-05 17:00 51.69271 13.75080 23711 ft 384 kts 187°
2026-05-05 17:01 51.66569 13.74736 24147 ft 386 kts 187°
2026-05-05 17:01 51.63921 13.74402 24547 ft 388 kts 187°
2026-05-05 17:01 51.61217 13.74060 24941 ft 391 kts 187°
2026-05-05 17:01 51.58499 13.73718 25330 ft 393 kts 187°
2026-05-05 17:02 51.55763 13.73371 25705 ft 396 kts 187°
2026-05-05 17:02 51.53011 13.73022 26078 ft 398 kts 187°
2026-05-05 17:02 51.50245 13.72674 26431 ft 400 kts 187°
2026-05-05 17:02 51.47454 13.72322 26782 ft 403 kts 187°
2026-05-05 17:03 51.44656 13.71969 27134 ft 405 kts 187°
2026-05-05 17:03 51.41838 13.71613 27484 ft 407 kts 187°
2026-05-05 17:03 51.39006 13.71255 27827 ft 409 kts 187°
2026-05-05 17:03 51.36161 13.70896 28161 ft 412 kts 187°
2026-05-05 17:04 51.33294 13.70537 28497 ft 414 kts 187°
2026-05-05 17:04 51.30415 13.70174 28808 ft 416 kts 187°
2026-05-05 17:04 51.27514 13.69805 29126 ft 419 kts 187°
2026-05-05 17:04 51.24603 13.69437 29435 ft 421 kts 187°
2026-05-05 17:05 51.21683 13.69072 29752 ft 422 kts 187°
2026-05-05 17:05 51.18754 13.68708 30036 ft 423 kts 187°
2026-05-05 17:05 51.15814 13.68339 30296 ft 425 kts 188°
2026-05-05 17:05 51.12936 13.67392 30542 ft 421 kts 200°
2026-05-05 17:06 51.10153 13.65900 30792 ft 423 kts 201°
2026-05-05 17:06 51.07366 13.64390 31037 ft 424 kts 201°
2026-05-05 17:06 51.04573 13.62868 31332 ft 424 kts 201°
2026-05-05 17:06 51.01792 13.61352 31677 ft 422 kts 201°
2026-05-05 17:07 50.99017 13.59841 32003 ft 421 kts 201°
2026-05-05 17:07 50.96244 13.58338 32338 ft 420 kts 201°
2026-05-05 17:07 50.93484 13.56846 32676 ft 419 kts 201°
2026-05-05 17:07 50.90729 13.55363 32998 ft 418 kts 201°
2026-05-05 17:08 50.87975 13.53880 33319 ft 417 kts 201°
2026-05-05 17:08 50.85215 13.52394 33190 ft 421 kts 199°
2026-05-05 17:08 50.82428 13.50889 33318 ft 426 kts 199°
2026-05-05 17:08 50.79609 13.49365 33444 ft 431 kts 199°
2026-05-05 17:09 50.76750 13.47822 33570 ft 436 kts 199°
2026-05-05 17:09 50.73865 13.46272 34034 ft 440 kts 199°
2026-05-05 17:09 50.68095 13.43189 34085 ft 444 kts 199°
2026-05-05 17:10 50.65162 13.41627 34243 ft 447 kts 199°
2026-05-05 17:10 50.62219 13.40059 34497 ft 445 kts 199°
2026-05-05 17:10 50.59331 13.38525 35464 ft 430 kts 201°
2026-05-05 17:10 50.56504 13.37026 35707 ft 418 kts 201°
2026-05-05 17:11 50.51105 13.34162 35784 ft 407 kts 201°
2026-05-05 17:11 50.45755 13.31325 35783 ft 405 kts 200°
2026-05-05 17:12 50.40420 13.28507 35784 ft 404 kts 200°
2026-05-05 17:12 50.35093 13.25690 35775 ft 404 kts 201°
2026-05-05 17:13 50.29756 13.22876 35773 ft 405 kts 200°
2026-05-05 17:13 50.24415 13.20077 35774 ft 405 kts 200°
2026-05-05 17:14 50.19076 13.17290 35768 ft 405 kts 200°
2026-05-05 17:14 50.13734 13.14507 35769 ft 405 kts 200°
2026-05-05 17:15 50.08392 13.11720 35777 ft 405 kts 200°
2026-05-05 17:15 50.03050 13.08937 35774 ft 404 kts 200°
2026-05-05 17:16 49.97714 13.06170 35771 ft 404 kts 200°
2026-05-05 17:16 49.92380 13.03411 35764 ft 404 kts 200°
2026-05-05 17:17 49.89706 13.02032 35484 ft 404 kts 200°
2026-05-05 17:17 49.87032 13.00657 35860 ft 407 kts 200°
2026-05-05 17:17 49.84349 12.99278 35737 ft 406 kts 200°
2026-05-05 17:17 49.81678 12.97904 35742 ft 405 kts 200°
2026-05-05 17:18 49.76332 12.95158 35739 ft 405 kts 200°
2026-05-05 17:18 49.71026 12.92436 35744 ft 404 kts 200°
2026-05-05 17:19 49.65683 12.89703 35742 ft 404 kts 200°
2026-05-05 17:19 49.60339 12.86979 35734 ft 404 kts 200°
2026-05-05 17:20 49.55000 12.84254 35743 ft 404 kts 200°
2026-05-05 17:20 49.49654 12.81536 35738 ft 404 kts 200°
2026-05-05 17:21 49.44309 12.78831 35722 ft 405 kts 199°
2026-05-05 17:22 49.37142 12.75210 35732 ft 406 kts 199°
2026-05-05 17:22 49.31776 12.72512 35726 ft 406 kts 199°
2026-05-05 17:23 49.26399 12.69811 35738 ft 406 kts 199°
2026-05-05 17:23 49.21060 12.67127 35733 ft 407 kts 199°
2026-05-05 17:24 49.15676 12.64435 35738 ft 407 kts 199°
2026-05-05 17:24 49.10290 12.61744 35739 ft 408 kts 199°
2026-05-05 17:25 49.04899 12.59055 35762 ft 408 kts 200°
2026-05-05 17:25 48.99500 12.56370 35785 ft 407 kts 200°
2026-05-05 17:26 48.94122 12.53709 35792 ft 406 kts 199°
2026-05-05 17:26 48.88745 12.51049 35788 ft 406 kts 200°
2026-05-05 17:27 48.83379 12.48394 35785 ft 405 kts 200°
2026-05-05 17:27 48.78014 12.45756 35791 ft 405 kts 200°
2026-05-05 17:28 48.72661 12.43122 35790 ft 404 kts 200°
2026-05-05 17:28 48.67317 12.40501 35791 ft 404 kts 200°
2026-05-05 17:29 48.61976 12.37891 35774 ft 403 kts 200°
2026-05-05 17:29 48.56637 12.35278 35786 ft 403 kts 200°
2026-05-05 17:30 48.51301 12.32677 35786 ft 403 kts 200°
2026-05-05 17:30 48.45965 12.30087 35787 ft 403 kts 200°
2026-05-05 17:31 48.40630 12.27500 35788 ft 402 kts 200°
2026-05-05 17:31 48.35302 12.24923 35789 ft 402 kts 200°
2026-05-05 17:32 48.30016 12.22374 35790 ft 402 kts 200°
2026-05-05 17:32 48.24691 12.19812 35785 ft 402 kts 200°
2026-05-05 17:33 48.19367 12.17253 35788 ft 401 kts 200°
2026-05-05 17:33 48.14049 12.14697 35789 ft 401 kts 200°
2026-05-05 17:34 48.08733 12.12149 35790 ft 401 kts 200°
2026-05-05 17:34 48.03407 12.09617 35795 ft 401 kts 200°
2026-05-05 17:35 47.98089 12.07085 35800 ft 401 kts 200°
2026-05-05 17:35 47.92772 12.04553 35804 ft 401 kts 200°
2026-05-05 17:36 47.87487 12.01930 35801 ft 398 kts 208°
2026-05-05 17:36 47.82918 11.97372 35800 ft 396 kts 217°
2026-05-05 17:37 47.78474 11.92539 35797 ft 396 kts 217°
2026-05-05 17:37 47.74036 11.87720 35808 ft 396 kts 217°
2026-05-05 17:38 47.69586 11.82917 35837 ft 395 kts 216°
2026-05-05 17:38 47.65148 11.78153 35816 ft 393 kts 216°
2026-05-05 17:39 47.60716 11.73409 35824 ft 392 kts 217°
2026-05-05 17:39 47.56307 11.68683 35824 ft 391 kts 217°
2026-05-05 17:40 47.51901 11.63964 35829 ft 391 kts 217°
2026-05-05 17:40 47.47494 11.59252 35828 ft 391 kts 216°
2026-05-05 17:41 47.43088 11.54566 35831 ft 390 kts 216°
2026-05-05 17:41 47.38681 11.49885 35827 ft 389 kts 217°
2026-05-05 17:42 47.34311 11.45252 35823 ft 390 kts 217°
2026-05-05 17:42 47.29908 11.40590 35821 ft 390 kts 217°
2026-05-05 17:43 47.25498 11.35936 35836 ft 390 kts 217°
2026-05-05 17:43 47.21083 11.31293 35811 ft 391 kts 217°
2026-05-05 17:44 47.16658 11.26640 35819 ft 392 kts 217°
2026-05-05 17:44 47.12221 11.21986 35873 ft 393 kts 217°
2026-05-05 17:45 47.07736 11.17307 35899 ft 393 kts 217°
2026-05-05 17:45 47.03321 11.12684 35924 ft 392 kts 217°
2026-05-05 17:46 46.98891 11.08050 35943 ft 391 kts 217°
2026-05-05 17:46 46.94454 11.03449 35944 ft 391 kts 216°
2026-05-05 17:47 46.90028 10.98857 35947 ft 390 kts 217°
2026-05-05 17:47 46.85605 10.94265 35962 ft 390 kts 217°
2026-05-05 17:48 46.81183 10.89695 35965 ft 389 kts 216°
2026-05-05 17:48 46.76766 10.85144 35980 ft 388 kts 216°
2026-05-05 17:49 46.72353 10.80600 35978 ft 388 kts 217°
2026-05-05 17:49 46.67944 10.76068 35984 ft 388 kts 216°
2026-05-05 17:50 46.63535 10.71537 35981 ft 388 kts 216°
2026-05-05 17:50 46.59129 10.67030 35980 ft 387 kts 216°
2026-05-05 17:51 46.54717 10.62530 35979 ft 388 kts 216°
2026-05-05 17:51 46.50288 10.58012 35751 ft 387 kts 216°
2026-05-05 17:51 46.48079 10.55759 34443 ft 392 kts 217°
2026-05-05 17:52 46.45840 10.53475 33294 ft 392 kts 217°
2026-05-05 17:52 46.43663 10.51265 33002 ft 371 kts 217°
2026-05-05 17:52 46.41574 10.49151 32634 ft 364 kts 217°
2026-05-05 17:52 46.39507 10.47058 32154 ft 361 kts 217°
2026-05-05 17:53 46.37462 10.44988 31730 ft 357 kts 217°
2026-05-05 17:53 46.35436 10.42941 31308 ft 353 kts 217°
2026-05-05 17:53 46.33434 10.40918 30900 ft 350 kts 217°
2026-05-05 17:53 46.31448 10.38909 30501 ft 346 kts 217°
2026-05-05 17:54 46.29483 10.36924 30110 ft 343 kts 218°
2026-05-05 17:54 46.27535 10.34957 29670 ft 339 kts 218°
2026-05-05 17:54 46.25615 10.33020 29300 ft 334 kts 217°
2026-05-05 17:54 46.23719 10.31110 28915 ft 330 kts 217°
2026-05-05 17:55 46.21856 10.29241 28575 ft 323 kts 217°
2026-05-05 17:55 46.20025 10.27406 28212 ft 318 kts 217°
2026-05-05 17:55 46.18225 10.25596 27877 ft 313 kts 217°
2026-05-05 17:55 46.16456 10.23821 27519 ft 308 kts 217°
2026-05-05 17:56 46.14700 10.22068 27178 ft 306 kts 217°
2026-05-05 17:56 46.12961 10.20332 26824 ft 303 kts 217°
2026-05-05 17:56 46.11226 10.18596 26471 ft 303 kts 217°
2026-05-05 17:56 46.09506 10.16872 26143 ft 301 kts 217°
2026-05-05 17:57 46.07814 10.15176 25780 ft 299 kts 217°
2026-05-05 17:57 46.06112 10.13473 25418 ft 297 kts 217°
2026-05-05 17:57 46.04405 10.11806 25044 ft 295 kts 213°
2026-05-05 17:57 46.02556 10.10451 24624 ft 300 kts 209°
2026-05-05 17:58 46.00674 10.09148 24170 ft 301 kts 209°
2026-05-05 17:58 45.98783 10.07840 23726 ft 302 kts 208°
2026-05-05 17:58 45.96894 10.06532 23222 ft 301 kts 208°
2026-05-05 17:58 45.95015 10.05230 22764 ft 299 kts 208°
2026-05-05 17:59 45.93142 10.03930 22334 ft 299 kts 208°
2026-05-05 17:59 45.91271 10.02633 21893 ft 298 kts 208°
2026-05-05 17:59 45.89408 10.01342 21470 ft 297 kts 208°
2026-05-05 17:59 45.87545 10.00057 21042 ft 297 kts 208°
2026-05-05 18:00 45.85682 9.98780 20627 ft 297 kts 208°
2026-05-05 18:00 45.83827 9.97510 20207 ft 295 kts 209°
2026-05-05 18:00 45.81977 9.96240 19796 ft 294 kts 208°
2026-05-05 18:00 45.80135 9.94975 19395 ft 294 kts 208°
2026-05-05 18:01 45.78290 9.93704 18987 ft 294 kts 208°
2026-05-05 18:01 45.76449 9.92437 18585 ft 294 kts 208°
2026-05-05 18:01 45.74609 9.91172 18167 ft 294 kts 208°
2026-05-05 18:01 45.72759 9.89901 17720 ft 294 kts 208°
2026-05-05 18:02 45.70921 9.88639 17333 ft 292 kts 208°
2026-05-05 18:02 45.69089 9.87383 16919 ft 292 kts 208°
2026-05-05 18:02 45.67261 9.86133 16535 ft 291 kts 208°
2026-05-05 18:02 45.65438 9.84888 16153 ft 290 kts 208°
2026-05-05 18:03 45.63625 9.83640 15780 ft 289 kts 208°
2026-05-05 18:03 45.61827 9.82360 15401 ft 289 kts 209°
2026-05-05 18:03 45.60037 9.81064 15026 ft 288 kts 210°
2026-05-05 18:03 45.58250 9.79760 14651 ft 288 kts 210°
2026-05-05 18:04 45.56465 9.78453 14282 ft 289 kts 209°
2026-05-05 18:04 45.54678 9.77149 13899 ft 289 kts 209°
2026-05-05 18:04 45.52886 9.75845 13491 ft 289 kts 209°
2026-05-05 18:04 45.51093 9.74542 13106 ft 288 kts 209°
2026-05-05 18:05 45.49308 9.73251 12831 ft 287 kts 208°
2026-05-05 18:05 45.47530 9.71970 12440 ft 286 kts 208°
2026-05-05 18:05 45.45759 9.70696 12060 ft 285 kts 208°
2026-05-05 18:05 45.43993 9.69426 11672 ft 284 kts 208°
2026-05-05 18:06 45.42254 9.68177 11300 ft 283 kts 208°
2026-05-05 18:06 45.41660 9.67751 11155 ft 283 kts 208°
2026-05-05 18:06 45.38716 9.65637 10484 ft 283 kts 207°
2026-05-05 18:06 45.36962 9.64375 10089 ft 282 kts 207°
2026-05-05 18:07 45.35222 9.63126 9779 ft 277 kts 207°
2026-05-05 18:07 45.34079 9.62307 9441 ft 279 kts 207°
2026-05-05 18:07 45.32361 9.61076 9071 ft 276 kts 207°
2026-05-05 18:07 45.30654 9.59851 8707 ft 272 kts 207°
2026-05-05 18:08 45.28411 9.58240 8169 ft 270 kts 207°
2026-05-05 18:08 45.26727 9.57034 7722 ft 270 kts 207°
2026-05-05 18:08 45.25083 9.55811 7361 ft 266 kts 213°
2026-05-05 18:08 45.23740 9.54070 6780 ft 260 kts 233°
2026-05-05 18:09 45.23130 9.52595 6474 ft 255 kts 245°
2026-05-05 18:09 45.22703 9.50200 6021 ft 248 kts 264°
2026-05-05 18:09 45.22711 9.47807 5633 ft 237 kts 269°
2026-05-05 18:09 45.22742 9.45515 5258 ft 228 kts 269°
2026-05-05 18:10 45.22764 9.43298 4912 ft 220 kts 269°
2026-05-05 18:10 45.22784 9.41218 4859 ft 204 kts 268°
2026-05-05 18:10 45.22802 9.39233 4799 ft 199 kts 268°
2026-05-05 18:10 45.22818 9.37275 4705 ft 198 kts 268°
2026-05-05 18:11 45.22834 9.35324 4620 ft 198 kts 269°
2026-05-05 18:11 45.23020 9.33369 4338 ft 203 kts 287°
2026-05-05 18:11 45.23690 9.31632 4149 ft 203 kts 308°
2026-05-05 18:11 45.24766 9.30338 3972 ft 205 kts 330°
2026-05-05 18:12 45.26112 9.29689 3747 ft 206 kts 353°
2026-05-05 18:12 45.27542 9.29525 3492 ft 206 kts 355°
2026-05-05 18:12 45.28955 9.29377 3246 ft 202 kts 355°
2026-05-05 18:12 45.30344 9.29229 2951 ft 198 kts 356°
2026-05-05 18:13 45.31700 9.29084 2688 ft 193 kts 357°
2026-05-05 18:13 45.33022 9.28942 2439 ft 188 kts 357°
2026-05-05 18:13 45.34317 9.28805 2177 ft 183 kts 358°
2026-05-05 18:13 45.35556 9.28677 1907 ft 174 kts 357°
2026-05-05 18:14 45.36712 9.28548 1764 ft 157 kts 357°
2026-05-05 18:14 45.37774 9.28436 1537 ft 150 kts 358°
2026-05-05 18:14 45.38796 9.28327 1311 ft 146 kts 358°
2026-05-05 18:14 45.39802 9.28214 1091 ft 144 kts 359°
2026-05-05 18:15 45.40801 9.28104 920 ft 143 kts 358°
2026-05-05 18:15 45.41793 9.27993 711 ft 142 kts 359°
2026-05-05 18:15 45.42775 9.27893 528 ft 141 kts 358°
2026-05-05 18:15 45.43753 9.27787 372 ft 138 kts 358°
2026-05-05 18:16 45.44565 9.27701 365 ft 86 kts 356°
2026-05-05 18:16 45.44980 9.27658 361 ft 51 kts 355°
2026-05-05 18:16 45.45262 9.27642 358 ft 21 kts 13°
2026-05-05 18:16 45.45393 9.27722 363 ft 20 kts 24°
2026-05-05 18:17 45.45471 9.27806 363 ft 12 kts 27°
2026-05-05 18:17 45.45553 9.27815 360 ft 11 kts
2026-05-05 18:17 45.45624 9.27816 360 ft 10 kts
2026-05-05 18:17 45.45691 9.27817 360 ft 11 kts
2026-05-05 18:18 45.45783 9.27818 364 ft 14 kts
2026-05-05 18:18 45.45881 9.27825 360 ft 12 kts 16°
2026-05-05 18:18 45.45907 9.27894 360 ft 9 kts 91°
2026-05-05 18:18 45.45921 9.27967 362 ft 7 kts 20°
2026-05-05 18:19 45.45961 9.27967 360 ft 2 kts 360°
2026-05-05 18:19 45.45973 9.27967 360 ft 1 kts
2026-05-05 18:19 45.45974 9.27967 360 ft 0 kts 360°